Autres sites météorologiques:

MétéotemplateWebsite of another weatherstation

Saratoga.org


Vous trouverez notre info météo également à:

European Weather Network

WeatherCloud

Weather Underground

French Weather Network

AWEKAS

HAMweather, WeatherForYou, PWS Weather



Crues Valable du: 17-01-2020 16:00 Au: 18-01-2020 16:00 Avertissement pour: Crues Niveau: Jaune info button
français:
Des phénomènes habituels dans la région mais occasionnellement et localement dangereux sont prévus , (ex. mistral, orage d’été, montée des eaux, fortes vagues submergeant le littoral)

Soyez attentifs; si vous pratiquez des activités sensibles au risque météorologique ou à proximité d'un rivage ou d'un cours d'eau; tenez-vous au courant de l’évolution de la situation.

Select another period ( hide this area )

Les unités Période Custom range Directly to
métriques impériales les deux
par jour Par semaine mensuel Annuel
use both date-selectors for a custom range
previous Jour
With this date

WeatherUnderground graphs for this period ( click here )


par jour Résumé pour Vendredi 17 janvier 2020
Temps Temp. ( °C ) Dew pt. ( °C ) Vent ( km/h ) de Rafale ( km/h ) Pression baro ( hPa ) Humid.( % ) Rainrate ( cm )
Maxi11,4 11,1 17,4 OSO ( 890/1966 ) 39,9 1024,0 98 4,30
Moyenne10,1 7,2 9,7 OSO #94/202 19,0 1017,8 83 4,50
Mini8,4 2,8 2,9   9,0 1012,0 60 -
par jour Tabular details for Vendredi 17 janvier 2020
Temps Temp. ( °C ) Dew pt. ( °C ) Vent ( km/h ) de Rafale ( km/h ) Pression baro ( hPa ) Humid.( % ) Rainrate ( cm )
00:00 11,3 11,0 9,3 SE 28,0 1014,0 98 -
00:05 11,3 11,0 11,1 SE 28,0 1013,0 98 1,00
00:10 11,3 11,0 10,9 SE 24,8 1013,0 98 1,00
00:15 11,3 11,0 9,7 SE 23,8 1013,0 98 2,00
00:20 11,3 11,0 10,6 SE 20,9 1014,0 98 2,00
00:25 11,4 11,1 10,1 Sud 21,9 1014,0 98 3,00
00:30 11,4 11,1 10,6 SSO 21,9 1014,0 98 4,30
00:35 11,3 11,0 9,2 SSO 20,1 1013,0 98 4,30
00:40 11,2 10,9 5,6 SSO 14,8 1013,0 98 4,30
00:45 11,0 10,7 5,0 SSO 14,8 1013,0 98 4,30
00:50 10,9 10,6 6,4 SSO 15,1 1013,0 98 4,30
00:55 10,8 10,5 6,9 SSO 15,1 1013,0 98 4,30
01:00 10,8 10,5 6,8 SSO 18,0 1013,0 98 4,30
01:05 10,8 10,5 5,8 SSO 18,0 1013,0 98 3,30
01:10 10,7 10,4 5,5 SSO 15,1 1013,0 98 3,30
01:15 10,7 10,4 6,0 SSO 15,1 1013,0 98 2,30
01:20 10,7 10,4 5,6 SSO 13,0 1012,0 98 2,30
01:25 10,7 10,4 5,6 SSO 13,4 1012,0 98 -
01:30 10,8 10,5 6,1 SSO 14,0 1012,0 98 -
01:35 10,8 10,5 6,9 SSO 14,0 1013,0 98 -
01:40 10,8 10,5 6,0 SSO 11,9 1013,0 98 -
01:45 10,9 10,6 6,0 SSO 12,6 1013,0 98 -
01:50 10,8 10,5 6,0 SO 12,6 1013,0 98 -
01:55 10,8 10,5 4,7 SSO 11,1 1013,0 98 -
02:00 10,8 10,5 4,5 SSO 10,1 1013,0 98 -
02:05 10,7 10,4 4,2 SSO 9,7 1013,0 98 -
02:10 10,8 10,5 3,5 SSO 12,2 1013,0 98 -
02:15 10,9 10,6 4,3 SO 12,2 1013,0 98 -
02:20 10,9 10,6 6,1 SO 15,1 1013,0 98 -
02:25 10,9 10,6 7,6 SO 19,1 1013,0 98 -
02:30 10,9 10,6 8,2 SO 19,1 1013,0 98 -
02:35 10,8 10,5 7,2 SSO 12,6 1013,0 98 -
02:40 10,6 10,3 8,4 SSO 21,6 1013,0 98 -
02:45 10,5 10,2 9,0 SSO 21,6 1013,0 98 -
02:50 10,4 10,1 8,4 SSO 16,6 1014,0 98 -
02:55 10,3 10,0 7,9 SSO 16,3 1014,0 98 -
03:00 10,3 10,0 7,9 SSO 19,8 1014,0 98 -
03:05 10,2 9,9 8,5 SO 19,8 1014,0 98 -
03:10 10,2 9,9 9,7 SO 16,9 1014,0 98 -
03:15 10,1 9,8 10,0 SO 18,0 1014,0 98 -
03:20 10,1 9,8 10,0 SO 18,0 1014,0 98 -
03:25 10,1 9,8 12,7 SO 21,9 1014,0 98 -
03:30 10,2 9,7 13,5 SO 21,9 1014,0 97 -
03:35 10,3 9,7 10,8 SO 17,7 1015,0 96 -
03:40 10,2 9,6 10,5 SO 20,6 1015,0 96 -
03:45 10,2 9,6 11,1 SO 20,6 1015,0 96 -
03:50 10,2 9,6 10,3 SO 19,1 1015,0 96 -
03:55 10,3 9,6 10,1 SO 19,1 1015,0 95 -
04:00 10,3 9,6 11,4 SO 19,1 1015,0 95 -
04:05 10,3 9,6 10,8 SO 19,1 1014,0 95 -
04:10 10,4 9,6 9,3 SO 14,8 1014,0 95 -
04:15 10,4 9,6 8,7 SO 17,7 1014,0 95 -
04:20 10,5 9,7 9,8 SO 19,1 1014,0 95 -
04:25 10,3 9,6 11,7 SO 22,4 1014,0 95 -
04:30 10,1 9,0 13,4 SO 22,4 1014,0 93 -
04:35 10,1 9,0 13,8 SO 20,6 1014,0 93 -
04:40 10,0 8,8 12,9 SO 19,8 1014,0 92 -
04:45 10,0 8,9 12,7 SO 20,9 1014,0 93 -
04:50 10,1 9,0 13,0 SO 20,9 1014,0 93 -
04:55 10,2 9,1 12,4 SO 20,1 1014,0 93 -
05:00 10,2 9,3 12,6 SO 18,3 1014,0 94 -
05:05 10,3 9,2 13,5 SO 19,8 1014,0 93 -
05:10 10,3 9,1 14,5 SO 25,6 1014,0 92 -
05:15 10,4 8,8 15,0 SO 25,6 1014,0 90 -
05:20 10,5 8,4 15,0 SO 24,5 1015,0 87 -
05:25 10,5 8,4 13,7 OSO 21,6 1015,0 87 -
05:30 10,5 8,3 12,7 SO 23,8 1015,0 86 -
05:35 10,5 8,4 12,7 OSO 23,8 1014,0 87 -
05:40 10,5 8,4 12,1 OSO 19,1 1014,0 87 -
05:45 10,4 8,3 11,7 OSO 27,0 1014,0 87 -
05:50 10,3 7,9 12,7 SO 27,0 1015,0 85 -
05:55 10,2 7,4 13,4 SO 22,7 1015,0 83 -
06:00 10,3 7,3 13,5 SO 22,4 1015,0 82 -
06:05 10,3 7,3 13,8 SO 22,4 1014,0 82 -
06:10 10,4 7,6 14,3 SO 22,4 1014,0 83 -
06:15 10,4 7,8 15,4 SO 29,9 1014,0 84 -
06:20 10,5 7,7 15,6 SO 29,9 1014,0 83 -
06:25 10,5 7,7 15,9 SO 26,2 1014,0 83 -
06:30 10,5 7,7 16,4 SO 24,5 1014,0 83 -
06:35 10,5 7,9 15,3 SO 23,8 1015,0 84 -
06:40 10,5 7,9 14,0 SO 23,0 1015,0 84 -
06:45 10,4 7,8 12,1 SO 21,6 1015,0 84 -
06:50 10,4 7,8 11,1 SO 21,6 1015,0 84 -
06:55 10,4 7,4 12,9 SO 20,6 1015,0 82 -
07:00 10,5 7,6 14,5 OSO 20,6 1015,0 82 -
07:05 10,5 7,7 14,8 SO 21,9 1016,0 83 -
07:10 10,3 7,6 13,8 SO 21,9 1016,0 83 -
07:15 10,2 7,4 12,6 OSO 19,1 1016,0 83 -
07:20 10,1 7,3 12,7 OSO 21,9 1017,0 83 -
07:25 10,1 7,0 14,0 SO 28,8 1017,0 81 -
07:30 10,2 6,7 14,0 SO 28,8 1017,0 79 -
07:35 10,2 6,6 11,1 SSO 12,2 1017,0 78 -
07:40 10,1 6,8 11,4 SSO 13,0 1017,0 80 -
07:45 10,1 6,8 11,7 OSO 21,6 1017,0 80 -
07:50 10,0 6,7 11,9 OSO 24,1 1017,0 80 -
07:55 9,9 6,6 12,4 OSO 24,1 1017,0 80 -
08:00 9,9 6,6 12,4 OSO 21,9 1017,0 80 -
08:05 9,8 6,5 12,1 OSO 21,9 1017,0 80 -
08:10 9,7 6,4 10,5 SO 18,0 1017,0 80 -
08:15 9,6 6,3 9,0 OSO 21,9 1017,0 80 -
08:20 9,5 6,4 8,5 OSO 21,9 1018,0 81 -
08:25 9,5 6,2 7,6 OSO 16,3 1018,0 80 -
08:30 9,5 6,2 7,7 OSO 13,0 1018,0 80 -
08:35 9,5 6,2 8,8 Ouest 16,9 1018,0 80 -
08:40 9,5 6,1 10,3 OSO 20,9 1018,0 79 -
08:45 9,4 6,1 10,6 OSO 20,9 1018,0 80 -
08:50 9,4 6,1 8,8 Ouest 14,3 1018,0 80 -
08:55 9,4 6,1 7,7 Ouest 15,1 1018,0 80 -
09:00 9,4 6,3 6,9 Ouest 15,1 1018,0 81 -
09:05 9,4 6,3 5,8 OSO 10,8 1019,0 81 -
09:10 9,4 6,5 6,0 OSO 13,7 1019,0 82 -
09:15 9,4 6,5 6,4 Ouest 13,7 1019,0 82 -
09:20 9,3 6,4 4,8 Ouest 11,9 1019,0 82 -
09:25 9,3 6,4 4,8 OSO 13,0 1019,0 82 -
09:30 9,3 6,4 5,5 OSO 13,0 1019,0 82 -
09:35 9,3 6,6 4,7 OSO 10,8 1019,0 83 -
09:40 9,3 6,6 4,5 OSO 10,5 1019,0 83 -
09:45 9,3 6,6 5,0 OSO 11,1 1019,0 83 -
09:50 9,3 6,6 5,0 OSO 13,0 1019,0 83 -
09:55 9,4 6,7 5,1 OSO 13,0 1019,0 83 -
10:00 9,5 6,4 6,6 OSO 19,1 1019,0 81 -
10:05 9,2 5,6 11,4 OSO 23,8 1020,0 78 -
10:10 8,7 5,4 12,2 OSO 23,8 1020,0 80 -
10:15 8,4 5,5 9,7 OSO 17,2 1020,0 82 1,00
10:20 8,4 5,7 8,5 OSO 14,8 1020,0 83 1,00
10:25 8,5 5,9 8,0 SO 14,3 1020,0 84 1,00
10:30 8,8 6,6 6,8 OSO 10,8 1020,0 86 1,00
10:35 9,1 6,7 6,6 OSO 12,6 1021,0 85 1,00
10:40 9,3 6,9 6,6 OSO 14,0 1021,0 85 1,00
10:45 9,5 7,1 6,3 OSO 14,0 1021,0 85 1,00
10:50 9,6 7,2 5,6 SO 10,8 1021,0 85 1,00
10:55 9,7 7,3 4,8 OSO 10,8 1021,0 85 1,00
11:00 9,9 7,3 4,5 OSO 10,8 1021,0 84 1,00
11:05 10,1 7,5 3,9 OSO 9,0 1021,0 84 1,00
11:10 10,2 7,4 3,2 OSO 9,0 1021,0 83 -
11:15 9,9 6,6 7,2 OSO 23,0 1021,0 80 -
11:20 9,3 6,0 9,3 OSO 23,0 1020,0 80 -
11:25 9,1 5,8 8,0 OSO 17,2 1020,0 80 -
11:30 8,9 6,0 7,6 OSO 13,7 1020,0 82 -
11:35 8,9 6,2 5,6 OSO 13,7 1022,0 83 -
11:40 9,1 6,4 2,9 Ouest 10,1 1022,0 83 -
11:45 9,2 6,4 3,1 Ouest 12,6 1022,0 83 -
11:50 9,1 6,4 4,0 Ouest 12,6 1022,0 83 -
11:55 9,0 6,1 4,0 Ouest 11,1 1022,0 82 -
12:00 9,1 6,2 3,9 OSO 10,5 1022,0 82 -
12:05 9,2 6,3 4,5 OSO 10,5 1022,0 82 -
12:10 9,3 6,4 6,0 OSO 12,6 1022,0 82 -
12:15 9,4 6,5 6,9 OSO 13,7 1022,0 82 -
12:20 9,6 6,7 7,1 OSO 13,7 1022,0 82 -
12:25 9,6 6,3 7,7 OSO 15,1 1022,0 80 -
12:30 9,5 5,7 9,7 OSO 18,3 1022,0 77 -
12:35 9,6 5,9 9,5 OSO 18,3 1022,0 78 -
12:40 9,8 5,6 10,0 OSO 19,1 1022,0 75 -
12:45 10,0 5,2 13,0 SO 25,3 1022,0 72 -
12:50 10,1 5,1 14,8 SO 25,3 1022,0 71 -
12:55 10,1 4,7 14,5 OSO 25,3 1022,0 69 -
13:00 10,1 4,7 13,4 OSO 25,3 1022,0 69 -
13:05 10,1 4,7 12,7 OSO 21,2 1022,0 69 -
13:10 10,1 4,7 13,0 SO 21,9 1022,0 69 -
13:15 10,1 4,9 12,2 OSO 23,8 1022,0 70 -
13:20 10,1 4,9 10,6 OSO 23,8 1022,0 70 -
13:25 10,1 4,9 10,0 OSO 21,9 1022,0 70 -
13:30 10,0 4,6 10,6 OSO 16,6 1022,0 69 -
13:35 10,0 4,6 11,9 OSO 22,7 1022,0 69 -
13:40 10,1 4,9 11,3 OSO 22,7 1022,0 70 -
13:45 10,1 4,7 11,4 OSO 20,6 1022,0 69 -
13:50 10,2 4,8 11,6 OSO 22,4 1022,0 69 -
13:55 10,4 5,2 11,3 OSO 22,4 1022,0 70 -
14:00 10,5 5,1 11,4 OSO 20,1 1022,0 69 -
14:05 10,6 4,9 11,3 OSO 20,1 1022,0 68 -
14:10 10,8 4,3 11,1 OSO 18,0 1022,0 64 -
14:15 11,1 4,8 9,8 OSO 16,9 1022,0 65 -
14:20 11,2 5,1 10,1 OSO 17,2 1023,0 66 -
14:25 11,0 4,9 12,1 OSO 36,4 1023,0 66 -
14:30 10,2 2,8 17,4 OSO 39,9 1023,0 60 -
14:35 10,1 2,9 17,4 SO 39,9 1023,0 61 -
14:40 9,9 2,9 12,2 SO 21,2 1023,0 62 -
14:45 10,1 3,2 11,1 SO 20,1 1023,0 62 -
14:50 10,3 3,3 11,7 SO 20,1 1023,0 62 -
14:55 10,5 3,5 10,8 OSO 18,0 1023,0 62 -
15:00 10,8 4,7 8,7 OSO 15,1 1023,0 66 -
15:05 10,9 4,6 9,0 OSO 16,9 1023,0 65 -
15:10 10,9 4,6 9,7 OSO 16,9 1023,0 65 -
15:15 10,8 3,6 9,7 OSO 18,0 1023,0 61 -
15:20 10,8 3,3 9,7 OSO 18,0 1023,0 60 -
15:25 10,8 3,8 9,0 OSO 16,9 1023,0 62 -
15:30 10,9 4,1 10,3 OSO 21,2 1023,0 63 -
15:35 10,9 4,1 10,3 OSO 21,2 1023,0 63 -
15:40 10,8 3,8 10,9 SO 19,1 1023,0 62 -
15:45 10,7 3,9 11,9 OSO 19,1 1023,0 63 -
15:50 10,7 4,2 10,5 OSO 20,9 1022,0 64 -
15:55 10,5 3,9 10,3 OSO 20,9 1022,0 64 -
16:00 10,5 3,7 10,9 OSO 21,9 1022,0 63 -
16:05 10,4 3,9 11,6 OSO 21,9 1023,0 64 -
16:10 10,3 3,8 11,9 OSO 22,7 1023,0 64 -
16:15 10,1 3,8 11,9 OSO 23,0 1023,0 65 -
16:20 10,0 3,9 11,3 OSO 23,0 1023,0 66 -
16:25 10,0 4,2 10,6 OSO 18,3 1023,0 67 -
16:30 9,8 4,2 10,8 OSO 26,2 1023,0 68 -
16:35 9,6 4,0 11,6 OSO 26,2 1024,0 68 -
16:40 9,5 3,7 10,8 Ouest 22,4 1024,0 67 -
16:45 9,5 3,9 10,0 OSO 17,7 1024,0 68 -
par jour Résumé pour Vendredi 17 janvier 2020
Temps Temp. ( °C ) Dew pt. ( °C ) Vent ( km/h ) de Rafale ( km/h ) Pression baro ( hPa ) Humid.( % ) Rainrate ( cm )
Maxi11,4 11,1 17,4 OSO ( 890/1966 ) 39,9 1024,0 98 4,30
Moyenne10,1 7,2 9,7 OSO #94/202 19,0 1017,8 83 4,50
Mini8,4 2,8 2,9   9,0 1012,0 60 -
par jour Tabular details for Vendredi 17 janvier 2020
Temps Temp. ( °C ) Dew pt. ( °C ) Vent ( km/h ) de Rafale ( km/h ) Pression baro ( hPa ) Humid.( % ) Rainrate ( cm )
00:00 11,3 11,0 9,3 SE 28,0 1014,0 98 -
00:05 11,3 11,0 11,1 SE 28,0 1013,0 98 1,00
00:10 11,3 11,0 10,9 SE 24,8 1013,0 98 1,00
00:15 11,3 11,0 9,7 SE 23,8 1013,0 98 2,00
00:20 11,3 11,0 10,6 SE 20,9 1014,0 98 2,00
00:25 11,4 11,1 10,1 Sud 21,9 1014,0 98 3,00
00:30 11,4 11,1 10,6 SSO 21,9 1014,0 98 4,30
00:35 11,3 11,0 9,2 SSO 20,1 1013,0 98 4,30
00:40 11,2 10,9 5,6 SSO 14,8 1013,0 98 4,30
00:45 11,0 10,7 5,0 SSO 14,8 1013,0 98 4,30
00:50 10,9 10,6 6,4 SSO 15,1 1013,0 98 4,30
00:55 10,8 10,5 6,9 SSO 15,1 1013,0 98 4,30
01:00 10,8 10,5 6,8 SSO 18,0 1013,0 98 4,30
01:05 10,8 10,5 5,8 SSO 18,0 1013,0 98 3,30
01:10 10,7 10,4 5,5 SSO 15,1 1013,0 98 3,30
01:15 10,7 10,4 6,0 SSO 15,1 1013,0 98 2,30
01:20 10,7 10,4 5,6 SSO 13,0 1012,0 98 2,30
01:25 10,7 10,4 5,6 SSO 13,4 1012,0 98 -
01:30 10,8 10,5 6,1 SSO 14,0 1012,0 98 -
01:35 10,8 10,5 6,9 SSO 14,0 1013,0 98 -
01:40 10,8 10,5 6,0 SSO 11,9 1013,0 98 -
01:45 10,9 10,6 6,0 SSO 12,6 1013,0 98 -
01:50 10,8 10,5 6,0 SO 12,6 1013,0 98 -
01:55 10,8 10,5 4,7 SSO 11,1 1013,0 98 -
02:00 10,8 10,5 4,5 SSO 10,1 1013,0 98 -
02:05 10,7 10,4 4,2 SSO 9,7 1013,0 98 -
02:10 10,8 10,5 3,5 SSO 12,2 1013,0 98 -
02:15 10,9 10,6 4,3 SO 12,2 1013,0 98 -
02:20 10,9 10,6 6,1 SO 15,1 1013,0 98 -
02:25 10,9 10,6 7,6 SO 19,1 1013,0 98 -
02:30 10,9 10,6 8,2 SO 19,1 1013,0 98 -
02:35 10,8 10,5 7,2 SSO 12,6 1013,0 98 -
02:40 10,6 10,3 8,4 SSO 21,6 1013,0 98 -
02:45 10,5 10,2 9,0 SSO 21,6 1013,0 98 -
02:50 10,4 10,1 8,4 SSO 16,6 1014,0 98 -
02:55 10,3 10,0 7,9 SSO 16,3 1014,0 98 -
03:00 10,3 10,0 7,9 SSO 19,8 1014,0 98 -
03:05 10,2 9,9 8,5 SO 19,8 1014,0 98 -
03:10 10,2 9,9 9,7 SO 16,9 1014,0 98 -
03:15 10,1 9,8 10,0 SO 18,0 1014,0 98 -
03:20 10,1 9,8 10,0 SO 18,0 1014,0 98 -
03:25 10,1 9,8 12,7 SO 21,9 1014,0 98 -
03:30 10,2 9,7 13,5 SO 21,9 1014,0 97 -
03:35 10,3 9,7 10,8 SO 17,7 1015,0 96 -
03:40 10,2 9,6 10,5 SO 20,6 1015,0 96 -
03:45 10,2 9,6 11,1 SO 20,6 1015,0 96 -
03:50 10,2 9,6 10,3 SO 19,1 1015,0 96 -
03:55 10,3 9,6 10,1 SO 19,1 1015,0 95 -
04:00 10,3 9,6 11,4 SO 19,1 1015,0 95 -
04:05 10,3 9,6 10,8 SO 19,1 1014,0 95 -
04:10 10,4 9,6 9,3 SO 14,8 1014,0 95 -
04:15 10,4 9,6 8,7 SO 17,7 1014,0 95 -
04:20 10,5 9,7 9,8 SO 19,1 1014,0 95 -
04:25 10,3 9,6 11,7 SO 22,4 1014,0 95 -
04:30 10,1 9,0 13,4 SO 22,4 1014,0 93 -
04:35 10,1 9,0 13,8 SO 20,6 1014,0 93 -
04:40 10,0 8,8 12,9 SO 19,8 1014,0 92 -
04:45 10,0 8,9 12,7 SO 20,9 1014,0 93 -
04:50 10,1 9,0 13,0 SO 20,9 1014,0 93 -
04:55 10,2 9,1 12,4 SO 20,1 1014,0 93 -
05:00 10,2 9,3 12,6 SO 18,3 1014,0 94 -
05:05 10,3 9,2 13,5 SO 19,8 1014,0 93 -
05:10 10,3 9,1 14,5 SO 25,6 1014,0 92 -
05:15 10,4 8,8 15,0 SO 25,6 1014,0 90 -
05:20 10,5 8,4 15,0 SO 24,5 1015,0 87 -
05:25 10,5 8,4 13,7 OSO 21,6 1015,0 87 -
05:30 10,5 8,3 12,7 SO 23,8 1015,0 86 -
05:35 10,5 8,4 12,7 OSO 23,8 1014,0 87 -
05:40 10,5 8,4 12,1 OSO 19,1 1014,0 87 -
05:45 10,4 8,3 11,7 OSO 27,0 1014,0 87 -
05:50 10,3 7,9 12,7 SO 27,0 1015,0 85 -
05:55 10,2 7,4 13,4 SO 22,7 1015,0 83 -
06:00 10,3 7,3 13,5 SO 22,4 1015,0 82 -
06:05 10,3 7,3 13,8 SO 22,4 1014,0 82 -
06:10 10,4 7,6 14,3 SO 22,4 1014,0 83 -
06:15 10,4 7,8 15,4 SO 29,9 1014,0 84 -
06:20 10,5 7,7 15,6 SO 29,9 1014,0 83 -
06:25 10,5 7,7 15,9 SO 26,2 1014,0 83 -
06:30 10,5 7,7 16,4 SO 24,5 1014,0 83 -
06:35 10,5 7,9 15,3 SO 23,8 1015,0 84 -
06:40 10,5 7,9 14,0 SO 23,0 1015,0 84 -
06:45 10,4 7,8 12,1 SO 21,6 1015,0 84 -
06:50 10,4 7,8 11,1 SO 21,6 1015,0 84 -
06:55 10,4 7,4 12,9 SO 20,6 1015,0 82 -
07:00 10,5 7,6 14,5 OSO 20,6 1015,0 82 -
07:05 10,5 7,7 14,8 SO 21,9 1016,0 83 -
07:10 10,3 7,6 13,8 SO 21,9 1016,0 83 -
07:15 10,2 7,4 12,6 OSO 19,1 1016,0 83 -
07:20 10,1 7,3 12,7 OSO 21,9 1017,0 83 -
07:25 10,1 7,0 14,0 SO 28,8 1017,0 81 -
07:30 10,2 6,7 14,0 SO 28,8 1017,0 79 -
07:35 10,2 6,6 11,1 SSO 12,2 1017,0 78 -
07:40 10,1 6,8 11,4 SSO 13,0 1017,0 80 -
07:45 10,1 6,8 11,7 OSO 21,6 1017,0 80 -
07:50 10,0 6,7 11,9 OSO 24,1 1017,0 80 -
07:55 9,9 6,6 12,4 OSO 24,1 1017,0 80 -
08:00 9,9 6,6 12,4 OSO 21,9 1017,0 80 -
08:05 9,8 6,5 12,1 OSO 21,9 1017,0 80 -
08:10 9,7 6,4 10,5 SO 18,0 1017,0 80 -
08:15 9,6 6,3 9,0 OSO 21,9 1017,0 80 -
08:20 9,5 6,4 8,5 OSO 21,9 1018,0 81 -
08:25 9,5 6,2 7,6 OSO 16,3 1018,0 80 -
08:30 9,5 6,2 7,7 OSO 13,0 1018,0 80 -
08:35 9,5 6,2 8,8 Ouest 16,9 1018,0 80 -
08:40 9,5 6,1 10,3 OSO 20,9 1018,0 79 -
08:45 9,4 6,1 10,6 OSO 20,9 1018,0 80 -
08:50 9,4 6,1 8,8 Ouest 14,3 1018,0 80 -
08:55 9,4 6,1 7,7 Ouest 15,1 1018,0 80 -
09:00 9,4 6,3 6,9 Ouest 15,1 1018,0 81 -
09:05 9,4 6,3 5,8 OSO 10,8 1019,0 81 -
09:10 9,4 6,5 6,0 OSO 13,7 1019,0 82 -
09:15 9,4 6,5 6,4 Ouest 13,7 1019,0 82 -
09:20 9,3 6,4 4,8 Ouest 11,9 1019,0 82 -
09:25 9,3 6,4 4,8 OSO 13,0 1019,0 82 -
09:30 9,3 6,4 5,5 OSO 13,0 1019,0 82 -
09:35 9,3 6,6 4,7 OSO 10,8 1019,0 83 -
09:40 9,3 6,6 4,5 OSO 10,5 1019,0 83 -
09:45 9,3 6,6 5,0 OSO 11,1 1019,0 83 -
09:50 9,3 6,6 5,0 OSO 13,0 1019,0 83 -
09:55 9,4 6,7 5,1 OSO 13,0 1019,0 83 -
10:00 9,5 6,4 6,6 OSO 19,1 1019,0 81 -
10:05 9,2 5,6 11,4 OSO 23,8 1020,0 78 -
10:10 8,7 5,4 12,2 OSO 23,8 1020,0 80 -
10:15 8,4 5,5 9,7 OSO 17,2 1020,0 82 1,00
10:20 8,4 5,7 8,5 OSO 14,8 1020,0 83 1,00
10:25 8,5 5,9 8,0 SO 14,3 1020,0 84 1,00
10:30 8,8 6,6 6,8 OSO 10,8 1020,0 86 1,00
10:35 9,1 6,7 6,6 OSO 12,6 1021,0 85 1,00
10:40 9,3 6,9 6,6 OSO 14,0 1021,0 85 1,00
10:45 9,5 7,1 6,3 OSO 14,0 1021,0 85 1,00
10:50 9,6 7,2 5,6 SO 10,8 1021,0 85 1,00
10:55 9,7 7,3 4,8 OSO 10,8 1021,0 85 1,00
11:00 9,9 7,3 4,5 OSO 10,8 1021,0 84 1,00
11:05 10,1 7,5 3,9 OSO 9,0 1021,0 84 1,00
11:10 10,2 7,4 3,2 OSO 9,0 1021,0 83 -
11:15 9,9 6,6 7,2 OSO 23,0 1021,0 80 -
11:20 9,3 6,0 9,3 OSO 23,0 1020,0 80 -
11:25 9,1 5,8 8,0 OSO 17,2 1020,0 80 -
11:30 8,9 6,0 7,6 OSO 13,7 1020,0 82 -
11:35 8,9 6,2 5,6 OSO 13,7 1022,0 83 -
11:40 9,1 6,4 2,9 Ouest 10,1 1022,0 83 -
11:45 9,2 6,4 3,1 Ouest 12,6 1022,0 83 -
11:50 9,1 6,4 4,0 Ouest 12,6 1022,0 83 -
11:55 9,0 6,1 4,0 Ouest 11,1 1022,0 82 -
12:00 9,1 6,2 3,9 OSO 10,5 1022,0 82 -
12:05 9,2 6,3 4,5 OSO 10,5 1022,0 82 -
12:10 9,3 6,4 6,0 OSO 12,6 1022,0 82 -
12:15 9,4 6,5 6,9 OSO 13,7 1022,0 82 -
12:20 9,6 6,7 7,1 OSO 13,7 1022,0 82 -
12:25 9,6 6,3 7,7 OSO 15,1 1022,0 80 -
12:30 9,5 5,7 9,7 OSO 18,3 1022,0 77 -
12:35 9,6 5,9 9,5 OSO 18,3 1022,0 78 -
12:40 9,8 5,6 10,0 OSO 19,1 1022,0 75 -
12:45 10,0 5,2 13,0 SO 25,3 1022,0 72 -
12:50 10,1 5,1 14,8 SO 25,3 1022,0 71 -
12:55 10,1 4,7 14,5 OSO 25,3 1022,0 69 -
13:00 10,1 4,7 13,4 OSO 25,3 1022,0 69 -
13:05 10,1 4,7 12,7 OSO 21,2 1022,0 69 -
13:10 10,1 4,7 13,0 SO 21,9 1022,0 69 -
13:15 10,1 4,9 12,2 OSO 23,8 1022,0 70 -
13:20 10,1 4,9 10,6 OSO 23,8 1022,0 70 -
13:25 10,1 4,9 10,0 OSO 21,9 1022,0 70 -
13:30 10,0 4,6 10,6 OSO 16,6 1022,0 69 -
13:35 10,0 4,6 11,9 OSO 22,7 1022,0 69 -
13:40 10,1 4,9 11,3 OSO 22,7 1022,0 70 -
13:45 10,1 4,7 11,4 OSO 20,6 1022,0 69 -
13:50 10,2 4,8 11,6 OSO 22,4 1022,0 69 -
13:55 10,4 5,2 11,3 OSO 22,4 1022,0 70 -
14:00 10,5 5,1 11,4 OSO 20,1 1022,0 69 -
14:05 10,6 4,9 11,3 OSO 20,1 1022,0 68 -
14:10 10,8 4,3 11,1 OSO 18,0 1022,0 64 -
14:15 11,1 4,8 9,8 OSO 16,9 1022,0 65 -
14:20 11,2 5,1 10,1 OSO 17,2 1023,0 66 -
14:25 11,0 4,9 12,1 OSO 36,4 1023,0 66 -
14:30 10,2 2,8 17,4 OSO 39,9 1023,0 60 -
14:35 10,1 2,9 17,4 SO 39,9 1023,0 61 -
14:40 9,9 2,9 12,2 SO 21,2 1023,0 62 -
14:45 10,1 3,2 11,1 SO 20,1 1023,0 62 -
14:50 10,3 3,3 11,7 SO 20,1 1023,0 62 -
14:55 10,5 3,5 10,8 OSO 18,0 1023,0 62 -
15:00 10,8 4,7 8,7 OSO 15,1 1023,0 66 -
15:05 10,9 4,6 9,0 OSO 16,9 1023,0 65 -
15:10 10,9 4,6 9,7 OSO 16,9 1023,0 65 -
15:15 10,8 3,6 9,7 OSO 18,0 1023,0 61 -
15:20 10,8 3,3 9,7 OSO 18,0 1023,0 60 -
15:25 10,8 3,8 9,0 OSO 16,9 1023,0 62 -
15:30 10,9 4,1 10,3 OSO 21,2 1023,0 63 -
15:35 10,9 4,1 10,3 OSO 21,2 1023,0 63 -
15:40 10,8 3,8 10,9 SO 19,1 1023,0 62 -
15:45 10,7 3,9 11,9 OSO 19,1 1023,0 63 -
15:50 10,7 4,2 10,5 OSO 20,9 1022,0 64 -
15:55 10,5 3,9 10,3 OSO 20,9 1022,0 64 -
16:00 10,5 3,7 10,9 OSO 21,9 1022,0 63 -
16:05 10,4 3,9 11,6 OSO 21,9 1023,0 64 -
16:10 10,3 3,8 11,9 OSO 22,7 1023,0 64 -
16:15 10,1 3,8 11,9 OSO 23,0 1023,0 65 -
16:20 10,0 3,9 11,3 OSO 23,0 1023,0 66 -
16:25 10,0 4,2 10,6 OSO 18,3 1023,0 67 -
16:30 9,8 4,2 10,8 OSO 26,2 1023,0 68 -
16:35 9,6 4,0 11,6 OSO 26,2 1024,0 68 -
16:40 9,5 3,7 10,8 Ouest 22,4 1024,0 67 -
16:45 9,5 3,9 10,0 OSO 17,7 1024,0 68 -

Download your copy of this data-set  here

Our weather-data as stored at Weather Underground. Script d'après Jim McMurry. Adapté pour le modèle par Leuven-Template.eu